Voltar ao catálogo

FENGYUN 1C DEB

LostSSO
NORAD 47027·DEBRIS·🇨🇳 China

Lançado May 10, 1999 de Taiyuan Satellite Launch Center

Loading…

Próximas Passagens (próximas 24 horas)

TLE

ObsoletoSource: Space-Track

Época: Apr 5, 2024, 21:22 UTC

1 47027U 99025FBD 24096.89047343  .00006499  00000-0  27543-2 0  9995
2 47027  98.5069 149.9563 0087727 303.2087 235.1816 14.23661377610542

Acompanhe FENGYUN 1C DEB em tempo real com AllMySat

Download on the App Store